FW7441 Weather Reports


Display with metric or nautical units.
time (UTC)temp
F
wind
direction
speed
MPH
gust
MPH
rain 1hr
in
rain 24hr
in
rain mn
in
humidity
%
barometer
mb
20260507151525 54 252 5.0 6.0 0.00 0.00 0.00 49 1014.0
20260507151022 53 212 2.0 3.0 0.00 0.00 0.00 47 1014.1
20260507150519 52 236 1.0 1.0 0.00 0.00 0.00 49 1014.2
20260507150015 52 234 3.0 3.0 0.00 0.00 0.00 48 1014.3
20260507145510 51 236 1.0 2.0 0.00 0.00 0.00 50 1014.4
20260507145008 51 330 3.0 5.0 0.00 0.00 0.00 51 1014.7
20260507144505 51 282 2.0 2.0 0.00 0.00 0.00 53 1014.5
20260507144002 50 299 3.0 5.0 0.00 0.00 0.00 50 1014.6
20260507143459 51 228 3.0 3.0 0.00 0.00 0.00 52 1014.7
20260507142956 50 239 3.0 5.0 0.00 0.00 0.00 53 1014.6
20260507142451 49 245 1.0 2.0 0.00 0.00 0.00 58 1014.7
20260507141949 48 258 1.0 2.0 0.00 0.00 0.00 58 1014.6
20260507141444 48 284 2.0 2.0 0.00 0.00 0.00 56 1014.7
20260507140942 49 196 1.0 1.0 0.00 0.00 0.00 56 1014.7
20260507140438 49 253 1.0 1.0 0.00 0.00 0.00 54 1015.1
20260507135936 48 151 1.0 1.0 0.00 0.00 0.00 56 1015.0
20260507135432 47 180 0.0 1.0 0.00 0.00 0.00 57 1014.8
20260507134930 46 238 2.0 2.0 0.00 0.00 0.00 59 1014.8
20260507134426 46 278 1.0 2.0 0.00 0.00 0.00 59 1015.0
20260507133923 45 296 2.0 2.0 0.00 0.00 0.00 60 1015.1
20260507133419 44 233 1.0 1.0 0.00 0.00 0.00 61 1015.1
20260507132917 44 345 0.0 0.0 0.00 0.00 0.00 66 1015.3
20260507132413 44 6 1.0 1.0 0.00 0.00 0.00 63 1015.2
20260507131910 43 269 1.0 1.0 0.00 0.00 0.00 65 1015.3
20260507131407 43 251 3.0 3.0 0.00 0.00 0.00 64 1015.2
20260507130904 43 236 1.0 1.0 0.00 0.00 0.00 65 1015.1
20260507130401 43 242 0.0 0.0 0.00 0.00 0.00 65 1015.2
20260507125859 43 284 1.0 1.0 0.00 0.00 0.00 66 1015.3
20260507125356 42 259 1.0 1.0 0.00 0.00 0.00 66 1015.4
20260507124854 42 275 2.0 2.0 0.00 0.00 0.00 67 1015.2
20260507124350 42 254 0.0 1.0 0.00 0.00 0.00 67 1015.2
20260507123849 41 241 1.0 1.0 0.00 0.00 0.00 68 1015.0
20260507123345 41 222 1.0 2.0 0.00 0.00 0.00 69 1014.8
20260507122841 41 243 1.0 1.0 0.00 0.00 0.00 69 1015.0
20260507122331 41 257 1.0 1.0 0.00 0.00 0.00 70 1014.8
20260507121828 41 229 1.0 1.0 0.00 0.00 0.00 70 1014.6
20260507121323 40 277 1.0 1.0 0.00 0.00 0.00 71 1014.8
20260507120820 40 238 1.0 1.0 0.00 0.00 0.00 72 1015.0
20260507120316 39 239 1.0 2.0 0.00 0.00 0.00 72 1014.8
20260507115813 39 252 1.0 1.0 0.00 0.00 0.00 74 1014.6
20260507115309 39 256 0.0 0.0 0.00 0.00 0.00 74 1014.8
20260507114805 39 241 0.0 0.0 0.00 0.00 0.00 75 1014.9
20260507114302 38 232 0.0 1.0 0.00 0.00 0.00 76 1014.6
20260507113759 37 261 1.0 1.0 0.00 0.00 0.00 78 1014.9
20260507113256 37 265 0.0 1.0 0.00 0.00 0.00 79 1014.9
20260507112754 36 269 0.0 0.0 0.00 0.00 0.00 80 1014.9
20260507112250 35 251 0.0 1.0 0.00 0.00 0.00 82 1014.4
20260507111748 35 265 0.0 0.0 0.00 0.00 0.00 84 1014.5
20260507111244 34 265 0.0 0.0 0.00 0.00 0.00 85 1014.6
20260507110741 34 260 0.0 0.0 0.00 0.00 0.00 86 1014.5
20260507110238 33 264 0.0 0.0 0.00 0.00 0.00 88 1014.6
20260507105734 33 263 0.0 1.0 0.00 0.00 0.00 88 1014.8
20260507105230 33 260 0.0 0.0 0.00 0.00 0.00 88 1014.4
20260507104728 33 260 0.0 0.0 0.00 0.00 0.00 87 1014.5
20260507104224 33 262 0.0 0.0 0.00 0.00 0.00 88 1014.5
20260507103720 33 264 0.0 0.0 0.00 0.00 0.00 88 1014.5
20260507103217 33 253 1.0 1.0 0.00 0.00 0.00 88 1014.2
20260507102713 32 270 0.0 1.0 0.00 0.00 0.00 88 1014.6
20260507102210 32 271 0.0 0.0 0.00 0.00 0.00 89 1014.5
20260507101706 32 271 0.0 0.0 0.00 0.00 0.00 89 1014.6
20260507101201 32 271 0.0 0.0 0.00 0.00 0.00 89 1014.5
20260507100659 32 271 0.0 1.0 0.00 0.00 0.00 90 1014.6
20260507100157 32 271 1.0 1.0 0.00 0.00 0.00 90 1014.4
20260507095655 32 271 0.0 0.0 0.00 0.00 0.00 90 1014.5
20260507095151 32 271 0.0 0.0 0.00 0.00 0.00 91 1014.3
20260507094648 32 271 0.0 0.0 0.00 0.00 0.00 90 1014.6
20260507094144 32 271 0.0 0.0 0.00 0.00 0.00 90 1014.7
20260507093642 32 271 1.0 1.0 0.00 0.00 0.00 90 1014.7
20260507093141 32 271 0.0 0.0 0.00 0.00 0.00 90 1014.4
20260507092637 32 271 0.0 0.0 0.00 0.00 0.00 90 1014.3
20260507092133 32 271 0.0 0.0 0.00 0.00 0.00 91 1014.7
20260507091630 32 271 0.0 0.0 0.00 0.00 0.00 90 1014.6
20260507091126 32 271 0.0 0.0 0.00 0.00 0.00 90 1014.6
20260507090622 31 271 0.0 0.0 0.00 0.00 0.00 90 1014.8
20260507090119 31 271 0.0 0.0 0.00 0.00 0.00 90 1014.5
20260507085616 32 271 0.0 0.0 0.00 0.00 0.00 90 1014.6
20260507085113 32 271 0.0 0.0 0.00 0.00 0.00 90 1014.5
20260507084609 32 271 1.0 1.0 0.00 0.00 0.00 89 1014.6
20260507084106 32 271 0.0 0.0 0.00 0.00 0.00 89 1014.6
20260507083603 32 271 0.0 0.0 0.00 0.00 0.00 88 1014.4
20260507083100 32 271 0.0 0.0 0.00 0.00 0.00 88 1014.4
20260507082556 32 271 0.0 0.0 0.00 0.00 0.00 88 1014.4
20260507082052 32 271 0.0 0.0 0.00 0.00 0.00 87 1014.9
20260507081548 32 271 0.0 0.0 0.00 0.00 0.00 87 1014.6
20260507081046 32 271 0.0 0.0 0.00 0.00 0.00 87 1014.5
20260507080542 32 271 0.0 0.0 0.00 0.00 0.00 87 1014.5
20260507080038 32 271 0.0 0.0 0.00 0.00 0.00 87 1014.6
20260507075533 33 271 0.0 0.0 0.00 0.00 0.00 86 1014.6
20260507075030 33 271 0.0 0.0 0.00 0.00 0.00 85 1014.9
20260507074527 33 271 0.0 0.0 0.00 0.00 0.00 85 1014.8
20260507074026 33 271 0.0 0.0 0.00 0.00 0.00 85 1014.6
20260507073521 33 271 0.0 0.0 0.00 0.00 0.00 85 1014.6
20260507073018 33 271 0.0 0.0 0.00 0.00 0.00 85 1014.8
20260507072515 33 271 0.0 0.0 0.00 0.00 0.00 86 1014.8
20260507072012 33 271 0.0 0.0 0.00 0.00 0.00 85 1014.9
20260507071509 33 271 0.0 0.0 0.00 0.00 0.00 84 1015.0
20260507071006 34 271 0.0 0.0 0.00 0.00 0.00 84 1015.0
20260507070503 34 271 0.0 0.0 0.00 0.00 0.00 84 1015.1
20260507070000 34 271 0.0 0.0 0.00 0.00 0.00 83 1014.9
20260507065456 34 271 0.0 0.0 0.00 0.00 0.00 82 1014.9
20260507064954 34 271 0.0 0.0 0.00 0.00 0.00 82 1015.0
20260507064452 35 271 0.0 0.0 0.00 0.00 0.00 82 1015.1
20260507063949 35 271 0.0 0.0 0.00 0.00 0.00 82 1015.0
20260507063446 35 271 0.0 0.0 0.00 0.00 0.00 82 1015.3
20260507062943 35 271 0.0 0.0 0.00 0.00 0.00 81 1015.1
20260507062441 35 271 0.0 0.0 0.00 0.00 0.00 81 1015.0
20260507061938 35 271 0.0 0.0 0.00 0.00 0.00 81 1015.3
20260507061436 35 271 0.0 0.0 0.00 0.00 0.00 80 1015.2
20260507060934 35 271 0.0 1.0 0.00 0.00 0.00 81 1015.1
20260507060430 35 271 0.0 0.0 0.00 0.00 0.00 80 1015.2
20260507055927 35 271 0.0 0.0 0.00 0.00 0.00 79 1015.0
20260507055423 35 271 0.0 0.0 0.00 0.00 0.00 79 1015.2
20260507054920 35 271 0.0 0.0 0.00 0.00 0.00 79 1015.1
20260507054416 35 271 0.0 0.0 0.00 0.00 0.00 80 1014.8
20260507053913 35 271 0.0 0.0 0.00 0.00 0.00 80 1015.0
20260507053410 35 271 0.0 0.0 0.00 0.00 0.00 80 1015.4
20260507052909 35 271 0.0 0.0 0.00 0.00 0.00 81 1015.2
20260507052406 35 271 0.0 0.0 0.00 0.00 0.00 80 1015.2
20260507051857 36 271 0.0 0.0 0.00 0.00 0.00 80 1015.2
20260507051355 36 271 0.0 0.0 0.00 0.00 0.00 80 1015.2
20260507050851 36 271 0.0 0.0 0.00 0.00 0.00 78 1015.3
20260507050348 36 271 0.0 0.0 0.00 0.00 0.00 77 1015.3
20260507045845 36 271 0.0 0.0 0.00 0.00 0.00 76 1015.2
20260507045342 37 271 0.0 0.0 0.00 0.00 0.00 75 1015.2
20260507044839 37 271 0.0 0.0 0.00 0.00 0.00 74 1015.3
20260507044335 37 271 0.0 0.0 0.00 0.00 0.00 74 1015.1
20260507043831 37 271 0.0 0.0 0.00 0.00 0.00 74 1015.0
20260507043328 37 271 0.0 0.0 0.00 0.00 0.00 74 1015.2
20260507042824 38 271 0.0 0.0 0.00 0.00 0.00 73 1015.3
20260507042320 38 271 0.0 0.0 0.00 0.00 0.00 72 1015.1
20260507041817 38 270 0.0 0.0 0.00 0.00 0.00 72 1015.1
20260507041313 38 271 0.0 0.0 0.00 0.00 0.00 71 1015.1
20260507040811 38 271 0.0 0.0 0.00 0.00 0.00 71 1014.8
20260507040307 39 271 0.0 0.0 0.00 0.00 0.00 70 1015.2
20260507035803 39 271 0.0 0.0 0.00 0.00 0.00 70 1015.4
20260507035258 39 271 0.0 0.0 0.00 0.00 0.00 68 1015.3
20260507034756 40 271 0.0 0.0 0.00 0.00 0.00 68 1015.1
20260507034253 40 271 0.0 0.0 0.00 0.00 0.00 67 1015.4
20260507033752 41 272 0.0 0.0 0.00 0.00 0.00 66 1015.4
20260507033249 41 274 0.0 0.0 0.00 0.00 0.00 65 1015.6
20260507032745 41 284 1.0 1.0 0.00 0.00 0.00 64 1015.4
20260507032242 41 284 0.0 0.0 0.00 0.00 0.00 64 1015.4
20260507031738 41 276 0.0 1.0 0.00 0.00 0.00 64 1015.2
20260507031235 41 264 0.0 0.0 0.00 0.00 0.00 64 1015.4
20260507030732 41 273 0.0 0.0 0.00 0.00 0.00 64 1015.3
20260507030229 41 236 0.0 0.0 0.00 0.00 0.00 64 1015.1
20260507025726 41 234 0.0 0.0 0.00 0.00 0.00 63 1015.4
20260507025223 42 236 0.0 0.0 0.00 0.00 0.00 62 1015.5
20260507024722 42 246 0.0 0.0 0.00 0.00 0.00 62 1015.3
20260507024218 42 246 0.0 0.0 0.00 0.00 0.00 61 1015.2
20260507023714 43 243 0.0 0.0 0.00 0.00 0.00 61 1015.3
20260507023211 43 264 0.0 0.0 0.00 0.00 0.00 58 1015.0
20260507022708 44 237 0.0 0.0 0.00 0.00 0.00 57 1015.0
20260507022204 44 303 1.0 2.0 0.00 0.00 0.00 58 1015.0
20260507021701 44 266 0.0 1.0 0.00 0.00 0.00 57 1014.9
20260507021156 44 284 0.0 1.0 0.00 0.00 0.00 57 1014.8
20260507020655 44 309 2.0 2.0 0.00 0.00 0.00 56 1014.8
20260507020150 44 267 1.0 1.0 0.00 0.00 0.00 56 1014.5
20260507015649 44 267 0.0 1.0 0.00 0.00 0.00 56 1014.6
20260507015146 44 283 1.0 1.0 0.00 0.00 0.00 57 1014.7
20260507014642 45 289 0.0 0.0 0.00 0.00 0.00 55 1014.7
20260507014138 45 267 1.0 1.0 0.00 0.00 0.00 55 1014.7
20260507013635 45 274 0.0 0.0 0.00 0.00 0.00 54 1014.5
20260507013132 45 265 1.0 1.0 0.00 0.00 0.00 55 1014.5
20260507012630 46 279 1.0 1.0 0.00 0.00 0.00 54 1014.5
20260507012125 46 262 0.0 0.0 0.00 0.00 0.00 53 1014.6
20260507011624 46 248 0.0 1.0 0.00 0.00 0.00 53 1014.3
20260507011119 46 290 0.0 0.0 0.00 0.00 0.00 52 1014.4
20260507010614 46 227 1.0 1.0 0.00 0.00 0.00 53 1014.3
20260507010110 47 273 1.0 1.0 0.00 0.00 0.00 52 1014.2
20260507005608 47 238 1.0 1.0 0.00 0.00 0.00 52 1014.3
20260507005104 47 275 2.0 2.0 0.00 0.00 0.00 53 1014.2
20260507004601 48 260 0.0 0.0 0.00 0.00 0.00 52 1014.2
20260507004058 48 345 3.0 5.0 0.00 0.00 0.00 50 1014.0
20260507003554 48 293 2.0 5.0 0.00 0.00 0.00 52 1014.3
20260507003049 48 302 2.0 3.0 0.00 0.00 0.00 50 1014.3
20260507002546 49 290 1.0 1.0 0.00 0.00 0.00 50 1014.2
20260507002042 49 300 2.0 3.0 0.00 0.00 0.00 50 1013.9
20260507001539 49 298 2.0 3.0 0.00 0.00 0.00 49 1013.9
20260507001037 50 263 2.0 2.0 0.00 0.00 0.00 50 1013.9
20260507000532 50 291 1.0 2.0 0.00 0.00 0.00 51 1013.7
20260507000028 50 263 2.0 3.0 0.00 0.00 0.00 51 1013.7
20260506235526 50 269 1.0 1.0 0.00 0.00 0.00 52 1013.4
20260506235021 50 272 1.0 1.0 0.00 0.00 0.00 52 1013.6
20260506234519 51 2 6.0 7.0 0.00 0.00 0.00 49 1013.6
20260506234016 51 313 3.0 6.0 0.00 0.00 0.00 48 1013.6
20260506233512 52 268 1.0 2.0 0.00 0.00 0.00 51 1013.5
20260506233009 52 270 3.0 5.0 0.00 0.00 0.00 50 1013.7
20260506232505 52 325 4.0 5.0 0.00 0.00 0.00 47 1013.3
20260506231955 52 234 3.0 5.0 0.00 0.00 0.00 47 1013.4
20260506231453 52 256 3.0 3.0 0.00 0.00 0.00 48 1013.3
20260506230951 52 294 2.0 5.0 0.00 0.00 0.00 49 1013.4
20260506230446 52 310 4.0 5.0 0.00 0.00 0.00 47 1013.4
20260506225943 52 299 3.0 3.0 0.00 0.00 0.00 48 1013.3
20260506225441 52 261 1.0 1.0 0.00 0.00 0.00 48 1013.1
20260506224937 52 313 2.0 2.0 0.00 0.00 0.00 48 1013.2
20260506224434 53 249 3.0 6.0 0.00 0.00 0.00 48 1013.4
20260506223931 53 217 1.0 2.0 0.00 0.00 0.00 49 1013.3
20260506223426 53 325 3.0 3.0 0.00 0.00 0.00 48 1013.2
20260506222924 53 281 2.0 2.0 0.00 0.00 0.00 47 1013.1
20260506222420 53 304 3.0 5.0 0.00 0.00 0.00 47 1013.1
20260506221917 53 281 1.0 2.0 0.00 0.00 0.00 48 1013.2
20260506221414 53 93 1.0 1.0 0.00 0.00 0.00 47 1013.0
20260506220912 53 265 1.0 2.0 0.00 0.00 0.00 48 1012.9
20260506220407 53 216 1.0 1.0 0.00 0.00 0.00 47 1013.0
20260506215904 53 341 2.0 2.0 0.00 0.00 0.00 47 1012.9
20260506215400 53 348 3.0 3.0 0.00 0.00 0.00 48 1013.0
20260506214856 53 307 2.0 3.0 0.00 0.00 0.00 48 1012.6
20260506214353 54 309 3.0 3.0 0.00 0.00 0.00 45 1012.5
20260506213851 55 310 2.0 3.0 0.00 0.00 0.00 46 1012.5
20260506213348 54 341 1.0 2.0 0.00 0.00 0.00 46 1012.5
20260506212845 54 233 5.0 7.0 0.00 0.00 0.00 47 1012.6
20260506212341 54 257 2.0 3.0 0.00 0.00 0.00 46 1012.5
20260506211836 54 321 4.0 6.0 0.00 0.00 0.00 47 1012.8
20260506211332 55 239 3.0 6.0 0.00 0.00 0.00 47 1012.9
20260506210824 55 295 1.0 2.0 0.00 0.00 0.00 46 1012.8
20260506210321 55 308 4.0 6.0 0.00 0.00 0.00 44 1012.4
20260506205818 57 267 8.0 9.0 0.00 0.00 0.00 42 1012.4
20260506205314 57 317 3.0 5.0 0.00 0.00 0.00 44 1012.4
20260506204810 58 282 3.0 3.0 0.00 0.00 0.00 43 1012.4
20260506204308 57 259 1.0 2.0 0.00 0.00 0.00 44 1012.5
20260506203806 57 214 2.0 2.0 0.00 0.00 0.00 43 1012.4
20260506203303 55 330 2.0 2.0 0.00 0.00 0.00 46 1012.5
20260506202759 55 287 2.0 2.0 0.00 0.00 0.00 43 1012.8
20260506202257 56 232 1.0 1.0 0.00 0.00 0.00 42 1012.5
20260506201753 57 271 3.0 3.0 0.00 0.00 0.00 42 1012.4
20260506201250 58 242 1.0 2.0 0.00 0.00 0.00 41 1012.3
20260506200747 58 252 4.0 8.0 0.00 0.00 0.00 39 1012.6
20260506200243 57 232 2.0 2.0 0.00 0.00 0.00 43 1012.6
20260506195740 58 271 6.0 8.0 0.00 0.00 0.00 41 1013.1
20260506195236 58 260 6.0 8.0 0.00 0.00 0.00 40 1013.0
20260506194734 59 268 5.0 7.0 0.00 0.00 0.00 39 1013.0
20260506194230 56 239 4.0 6.0 0.00 0.00 0.00 42 1012.9
20260506193728 57 211 1.0 2.0 0.00 0.00 0.00 38 1013.0
20260506193225 59 308 5.0 7.0 0.00 0.00 0.00 40 1012.6
20260506192721 57 18 1.0 1.0 0.00 0.00 0.00 43 1012.9
20260506192218 56 215 3.0 5.0 0.00 0.00 0.00 40 1013.0
20260506191715 58 289 3.0 3.0 0.00 0.00 0.00 43 1013.0
20260506191210 57 227 1.0 2.0 0.00 0.00 0.00 42 1013.0
20260506190708 57 268 3.0 3.0 0.00 0.00 0.00 43 1013.1
20260506190204 58 210 3.0 3.0 0.00 0.00 0.00 42 1013.1
20260506185702 55 239 0.0 1.0 0.00 0.00 0.00 47 1013.1
20260506185158 55 252 2.0 3.0 0.00 0.00 0.00 43 1013.1
20260506184656 56 318 0.0 1.0 0.00 0.00 0.00 46 1013.4
20260506184153 55 242 3.0 5.0 0.00 0.00 0.00 43 1013.1
20260506183650 55 269 3.0 5.0 0.00 0.00 0.00 44 1013.1
20260506183145 55 281 2.0 3.0 0.00 0.00 0.00 44 1013.1
20260506182643 55 267 4.0 5.0 0.00 0.00 0.00 43 1013.1
20260506182139 55 307 7.0 9.0 0.00 0.00 0.00 44 1013.0
20260506181632 56 165 3.0 5.0 0.00 0.00 0.00 42 1013.1
20260506181129 56 327 6.0 8.0 0.00 0.00 0.00 44 1013.1
20260506180626 56 225 1.0 2.0 0.00 0.00 0.00 45 1012.9
20260506180122 56 278 2.0 2.0 0.00 0.00 0.00 43 1013.0
20260506175619 55 244 1.0 2.0 0.00 0.00 0.00 42 1013.1
20260506175114 55 285 3.0 6.0 0.00 0.00 0.00 43 1013.1
20260506174614 55 264 2.0 2.0 0.00 0.00 0.00 44 1013.3
20260506174110 56 309 2.0 3.0 0.00 0.00 0.00 42 1013.1
20260506173607 55 332 3.0 5.0 0.00 0.00 0.00 43 1013.1
20260506173104 55 320 2.0 3.0 0.00 0.00 0.00 43 1013.3
20260506172602 56 264 3.0 3.0 0.00 0.00 0.00 41 1013.1
20260506172057 56 286 4.0 5.0 0.00 0.00 0.00 44 1013.4
20260506171555 54 302 5.0 6.0 0.00 0.00 0.00 44 1013.2
20260506171052 54 241 1.0 2.0 0.00 0.00 0.00 41 1013.4
20260506170549 54 45 1.0 2.0 0.00 0.00 0.00 46 1013.4
20260506170047 55 321 3.0 3.0 0.00 0.00 0.00 46 1013.7
20260506165545 54 251 4.0 6.0 0.00 0.00 0.00 44 1013.5
20260506165041 55 301 6.0 8.0 0.00 0.00 0.00 45 1013.5
20260506164538 56 289 2.0 3.0 0.00 0.00 0.00 40 1013.4
20260506164036 55 265 2.0 2.0 0.00 0.00 0.00 47 1013.4
20260506163532 55 280 4.0 9.0 0.00 0.00 0.00 42 1013.5
20260506163027 55 262 2.0 2.0 0.00 0.00 0.00 43 1013.3
20260506162524 54 254 0.0 1.0 0.00 0.00 0.00 46 1013.3
20260506162021 55 245 2.0 2.0 0.00 0.00 0.00 44 1013.5
20260506161519 56 248 4.0 6.0 0.00 0.00 0.00 45 1013.5
20260506161015 56 243 3.0 6.0 0.00 0.00 0.00 45 1013.6
20260506160513 54 295 4.0 5.0 0.00 0.00 0.00 42 1013.8
20260506160010 55 256 1.0 1.0 0.00 0.00 0.00 45 1013.2
20260506155508 55 249 2.0 3.0 0.00 0.00 0.00 46 1013.5
20260506153640 53 228 2.0 2.0 0.00 0.00 0.00 52 1013.6
20260506153137 53 304 3.0 3.0 0.00 0.00 0.00 50 1013.5
20260506152634 53 164 1.0 2.0 0.00 0.00 0.00 50 1013.6
20260506152132 53 280 3.0 5.0 0.00 0.00 0.00 48 1013.6